Location: Arroyo de Valdeoliva
(40.1604°N, 4.9878°W)
Time: 12:24:59
(UTC+00:00)

ARIANE 6 FM1 Upper Stage - Pass Details

Date: 16 February 2026
Orbit: 523 x 607 km, 62.0° (Epoch: 8 March)

Event Time Altitude Azimuth Distance (km) Brightness Sun altitude
Rises 19:16:08 0° 331° (NNW) 2,657 6.5 -15.8°
Reaches altitude 10° 19:18:29 10° 341° (NNW) 1,766 5.4 -16.2°
Maximum altitude 19:22:05 33° 47° (NE) 899 3.3 -16.9°
Enters shadow 19:22:24 33° 58° (ENE) 909 3.3 -17.0°
